DELTA 1 DEB

Satellite information

Favourite Embed

Satellite Type and Status

DEBRISIN ORBIT

Key statistics

Satellite DELTA 1 DEB at a glance.

Uptime

18935

Days in orbit

Revolutions

≈ 11.5

Per day

Orbit

MEO

Medium Earth Orbit

Inclination

101.9

Latest

Satellite identification and parameters

Extended collection of information and parameters for DELTA 1 DEB.

Object identification

Identified? True

Debris? True

Object name: DELTA 1 DEB

International designator: 1973-086GJ

Object number (NORAD): 9979

Object ID (CCSDS): 9979

Country: UNITED STATES OF AMERICA (US)

Current information (Y/N): Y

RCS size: SMALL

Orbital parameters

Period: 125.134 minutes

Inclination: 101.9222 deg

SMA: 8287.267 km

Apoapsis: 2410.487 km

Periapsis: 1407.776 km

RAAN: 213.8046 deg

Eccentricy: 0.06049708

Argument of periapsis: 59.8994 deg

Mean anomaly: 8.5443 deg

Mean motion: 11.50762752 rev/day

Mean motion (dot): 0.00000783 rev/day2

B* drag term: 0.011733625 1/REarth

Two-line elements (TLE)

Creation date: Sept. 8, 2025, 3:16 a.m.

Reference frame: TEME

Reference center: EARTH

Epoch: Sept. 7, 2025, 7:33 p.m. UTC

TLE line 0: 0 DELTA 1 DEB

TLE line 1: 1 09979U 73086GJ 25250.81481382 .00000783 00000-0 11734-1 0 9992

TLE line 2: 2 09979 101.9222 213.8046 0604971 59.8994 8.5443 11.50762752487434

Live tracking on map

Real-time ground track for satellite DELTA 1 DEB.

In-orbit conjunctions

A list of the most updated potential collisions computed for object DELTA 1 DEB.

Target Orbit TCA Probability of collision Miss distance Type
COSMOS 1137 LEO 2025-07-08 15:21:13 0.0001262005 334.0 (m) PAYLOAD
COSMOS 1823 DEB LEO 2024-08-23 14:57:27 0.0001249151 75.0 (m) DEBRIS
COSMOS 794 LEO 2024-05-30 08:38:33 0.0001400438 378.0 (m) PAYLOAD

Associated space launch

Meteorological satellite using radiometric imaging

DELTA 1 DEB was lifted into orbit during the mission ‘Delta 0300 | NOAA 3’, on board a Delta 0300 space rocket.

The launch took place on Nov. 6, 1973, 5:02 p.m. from Space Launch Complex 2W.

For more information about the launch, click the button.

Launch to space Delta 0300 | NOAA 3
Delta 0300 | NOAA 3

Agency: N/A

Status: Launch Successful

Launch date: Nov. 6, 1973, 5:02 p.m. UTC

Rocket: Delta 0300

Launch pad: Space Launch Complex 2W

Location: Vandenberg SFB, CA, USA

...

Latest news about this satellite

There are no fresh news available about this satellite. Check back as we update our databases every day.


Newsletter sign-up

Weekly statistics, charts and insights to help you stay on top of the space industry.